Starlink 11262

operational
NORAD ID: 62009 Int'l Des: 2024-213 Owner: SPXS Country: US Constellation: starlink
LEOCIRCULAR

关于 Starlink 11262

正在加载描述...

实时位置

正在加载3D地球...

即将过境

高度历史

Altitude vs Time

uPlot chart will show altitude changes over time

两行轨道根数

1 62009U 24213B 25354.56337947 .00069730 00000-0 57415-3 0 9992
2 62009 53.1579 71.6140 0001451 131.3581 228.7562 15.69770109 62488
Epoch: Dec 20, 2025 • Age: 8 hours

当前状态

高度 362.1 km
速度 7.70 km/s
星下点 36.01°N, 52.68°E
发射日期 Nov 18, 2024
运行时间 1 years
类型 internet

技术详情

分类 Payload
质量 960.00 kg
干质量 910.00 kg
总质量 960.00 kg
长度 0.30 m
直径 4.10 m
跨度 29.00 m
形状 Box + pan
制造商 SPXS
平台类型 Starlink V2MD
阶段状态 In Orbit
所有者/国家 SPXS/US

大型星座

Loading constellations...